Погода в Кромах

Россия / Орловская область     52°41′21″N   35°46′25″E
темп.,
°C
ветер,
м/с
пор.,
м/с
влажн.,
%
обл.,
%
осадки,
мм/ч
давл.,
гПа
погр.,
м
11 мая, вт
вт1100:00+7ссв6147676 0.0 1023417
03:00+7ссв6147991 0.0 1023369
06:00+7с7148666 0.0 1022348
09:00+12ссв8147711 0.0 1022574
12:00+16св8117251 0.0 10211060
15:00+16всв71178100 0.1 10201158
18:00+10в5108794 0.4 1023543
21:00+7св49955 0.4 1024202
12 мая, ср
ср1200:00+6в410920 0.0 1024268
03:00+5в379517 0.0 1025157
06:00+5всв499498 0.0 1025229
09:00+10всв577685 0.0 1024610
12:00+12всв6768100 0.3 10221251
15:00+9всв4587100 2.1 1020440
18:00+10вюв468250 0.3 1017831
21:00+7в41195100 0.4 1017339
13 мая, чт
чт1300:00+8вюв4109788 2.1 1016370
03:00+7юв5119632 2.2 1017367
06:00+6юв499823 0.0 1018284
09:00+11ююв5981100 0.0 1017682
12:00+15ююв586740 0.1 10161382
15:00+16ююв687051 1.3 10151300
18:00+15ююв4780100 0.6 1015721
21:00+11юв34925 0.6 101556
14 мая, пт
пт1400:00+10юв3493100 0.0 101549
03:00+11вюв3594100 0.2 101488
06:00+12в4896100 1.7 1014206
09:00+16юв6108630 2.7 1013569
12:00+20юв797761 0.0 10121013
15:00+21ююв7974100 0.8 10111184
18:00+20ю4883100 1.6 1011599
21:00+16ююз349199 6.1 101148
15 мая, сб
сб1500:00+15в1189100 0.0 101010
03:00+15вюв119693 5.4 101017
06:00+14ююв61397100 1.4 1011518
09:00+15юв1292100 2.8 1009179
12:00+21ю56724 1.7 10091140
15:00+21ююз69725 3.6 10081255
18:00+19ююз59815 0.7 1008794
21:00+14ю49940 2.6 1008199